Time,TemperatureF,DewpointF,PressureIn,WindDirection,WindDirectionDegrees,WindSpeedMPH,WindSpeedGustMPH,Humidity,HourlyPrecipIn,Conditions,Clouds,dailyrainin,SoftwareType,DateUTC
2013-04-13 00:00:00,68.5,64.5,29.91,SSW,202,2.0,2.0,87,0.00,RA,RA,0.00,WeatherDisplay:10.37,2013-04-13 04:00:00,
2013-04-13 00:05:00,68.2,64.5,29.91,SSW,202,2.3,2.3,88,0.00,RA,,0.00,WeatherDisplay:10.37,2013-04-13 04:05:00,
2013-04-13 00:10:00,68.2,64.5,29.91,SSW,202,2.3,2.3,88,0.00,RA,,0.00,WeatherDisplay:10.37,2013-04-13 04:10:00,
2013-04-13 00:15:00,68.2,64.5,29.91,SSW,202,2.3,2.3,88,0.00,CLR,,0.00,WeatherDisplay:10.37,2013-04-13 04:15:00,
2013-04-13 00:20:00,68.2,64.5,29.91,SSW,202,2.3,2.3,88,0.00,CLR,,0.00,WeatherDisplay:10.37,2013-04-13 04:20:00,
2013-04-13 00:25:00,68.2,64.5,29.91,SSW,202,2.3,2.3,88,0.00,CLR,,0.00,WeatherDisplay:10.37,2013-04-13 04:25:00,
2013-04-13 00:30:00,67.8,64.1,29.92,West,270,2.3,2.3,88,0.00,CLR,,0.00,WeatherDisplay:10.37,2013-04-13 04:30:00,
2013-04-13 00:35:00,67.8,64.1,29.92,West,270,1.6,1.6,88,0.00,CLR,,0.00,WeatherDisplay:10.37,2013-04-13 04:35:00,
2013-04-13 00:40:00,67.8,64.1,29.92,West,270,1.6,1.6,88,0.00,CLR,,0.00,WeatherDisplay:10.37,2013-04-13 04:40:00,
2013-04-13 00:45:00,67.8,64.1,29.92,West,270,1.6,1.6,88,0.00,CLR,,0.00,WeatherDisplay:10.37,2013-04-13 04:45:00,
2013-04-13 00:50:00,67.8,64.1,29.92,West,270,1.6,1.6,88,0.00,CLR,,0.00,WeatherDisplay:10.37,2013-04-13 04:50:00,
2013-04-13 00:55:00,67.8,64.1,29.92,West,270,1.6,1.6,88,0.00,CLR,,0.00,WeatherDisplay:10.37,2013-04-13 04:55:00,
2013-04-13 01:00:00,67.6,64.0,29.93,SW,225,1.1,1.1,88,0.00,CLR,,0.00,WeatherDisplay:10.37,2013-04-13 05:00:00,
2013-04-13 01:05:00,67.6,64.0,29.93,SW,225,1.1,1.1,88,0.00,CLR,,0.00,WeatherDisplay:10.37,2013-04-13 05:05:00,
2013-04-13 01:10:00,67.6,64.0,29.93,SW,225,1.1,1.1,88,0.00,CLR,,0.00,WeatherDisplay:10.37,2013-04-13 05:10:00,
2013-04-13 01:15:00,67.6,64.0,29.93,SW,225,1.1,1.1,88,0.00,CLR,,0.00,WeatherDisplay:10.37,2013-04-13 05:15:00,
2013-04-13 01:20:00,67.6,64.0,29.93,SW,225,1.1,1.1,88,0.00,CLR,,0.00,WeatherDisplay:10.37,2013-04-13 05:20:00,
2013-04-13 01:25:00,67.6,64.0,29.93,SW,225,1.1,1.1,88,0.00,CLR,,0.00,WeatherDisplay:10.37,2013-04-13 05:25:00,
2013-04-13 01:31:00,67.3,63.6,29.93,SW,225,2.6,2.6,88,0.00,CLR,,0.00,WeatherDisplay:10.37,2013-04-13 05:31:00,
2013-04-13 01:36:00,67.3,63.6,29.93,SW,225,2.6,2.6,88,0.00,CLR,,0.00,WeatherDisplay:10.37,2013-04-13 05:36:00,
2013-04-13 01:41:00,67.3,63.6,29.93,SW,225,2.3,2.6,88,0.00,CLR,,0.00,WeatherDisplay:10.37,2013-04-13 05:41:00,
2013-04-13 01:46:00,67.3,63.6,29.93,SW,225,2.3,2.6,88,0.00,CLR,,0.00,WeatherDisplay:10.37,2013-04-13 05:46:00,
2013-04-13 01:51:00,67.3,63.6,29.93,SW,225,2.6,2.6,88,0.00,CLR,,0.00,WeatherDisplay:10.37,2013-04-13 05:51:00,
2013-04-13 01:56:00,67.3,63.6,29.93,SW,225,2.6,2.6,88,0.00,CLR,,0.00,WeatherDisplay:10.37,2013-04-13 05:56:00,
2013-04-13 02:01:00,67.3,63.6,29.93,WSW,248,2.3,2.3,88,0.00,CLR,,0.00,WeatherDisplay:10.37,2013-04-13 06:01:00,
2013-04-13 02:06:00,67.3,63.6,29.93,WSW,248,2.3,2.3,88,0.00,CLR,,0.00,WeatherDisplay:10.37,2013-04-13 06:06:00,
2013-04-13 02:11:00,67.3,63.6,29.93,WSW,248,2.3,2.3,88,0.00,CLR,,0.00,WeatherDisplay:10.37,2013-04-13 06:11:00,
2013-04-13 02:16:00,67.3,63.6,29.93,WSW,248,2.3,2.3,88,0.00,CLR,,0.00,WeatherDisplay:10.37,2013-04-13 06:16:00,
2013-04-13 02:21:00,67.3,63.6,29.93,WSW,248,2.3,2.3,88,0.00,CLR,,0.00,WeatherDisplay:10.37,2013-04-13 06:21:00,
2013-04-13 02:26:00,67.3,63.6,29.93,WSW,248,2.3,2.3,88,0.00,CLR,,0.00,WeatherDisplay:10.37,2013-04-13 06:26:00,
2013-04-13 02:31:00,66.7,63.1,29.93,SE,135,2.3,2.9,88,0.00,CLR,,0.00,WeatherDisplay:10.37,2013-04-13 06:31:00,
2013-04-13 02:36:00,66.7,63.1,29.93,SE,135,2.3,2.9,88,0.00,CLR,,0.00,WeatherDisplay:10.37,2013-04-13 06:36:00,
2013-04-13 02:41:00,66.7,63.1,29.93,SE,135,2.3,2.9,88,0.00,CLR,,0.00,WeatherDisplay:10.37,2013-04-13 06:41:00,
2013-04-13 02:47:00,66.7,63.1,29.93,SE,135,2.9,2.9,88,0.00,CLR,,0.00,WeatherDisplay:10.37,2013-04-13 06:47:00,
2013-04-13 02:52:00,66.7,63.1,29.93,SE,135,2.9,2.9,88,0.00,CLR,,0.00,WeatherDisplay:10.37,2013-04-13 06:52:00,
2013-04-13 02:57:00,66.7,63.1,29.93,SE,135,2.9,2.9,88,0.00,CLR,,0.00,WeatherDisplay:10.37,2013-04-13 06:57:00,
2013-04-13 03:02:00,65.8,61.5,29.95,SSW,202,1.6,1.6,86,0.00,CLR,,0.00,WeatherDisplay:10.37,2013-04-13 07:02:00,
2013-04-13 03:07:00,65.8,61.5,29.95,SSW,202,1.6,1.6,86,0.00,CLR,,0.00,WeatherDisplay:10.37,2013-04-13 07:07:00,
2013-04-13 03:12:00,65.8,61.5,29.95,SSW,202,1.1,1.6,86,0.00,CLR,,0.00,WeatherDisplay:10.37,2013-04-13 07:12:00,
2013-04-13 03:17:00,65.8,61.5,29.95,SSW,202,1.1,1.6,86,0.00,CLR,,0.00,WeatherDisplay:10.37,2013-04-13 07:17:00,
2013-04-13 03:22:00,65.8,61.5,29.95,SSW,202,1.6,1.6,86,0.00,CLR,,0.00,WeatherDisplay:10.37,2013-04-13 07:22:00,
2013-04-13 03:28:00,65.8,61.5,29.95,SSW,202,1.1,1.6,86,0.00,CLR,,0.00,WeatherDisplay:10.37,2013-04-13 07:28:00,
2013-04-13 03:33:00,65.1,60.8,29.95,WSW,248,2.4,2.4,86,0.00,CLR,,0.00,WeatherDisplay:10.37,2013-04-13 07:33:00,
2013-04-13 03:38:00,65.1,60.8,29.95,WSW,248,2.3,2.4,86,0.00,CLR,,0.00,WeatherDisplay:10.37,2013-04-13 07:38:00,
2013-04-13 03:43:00,65.1,60.8,29.95,WSW,248,2.3,2.4,86,0.00,CLR,,0.00,WeatherDisplay:10.37,2013-04-13 07:43:00,
2013-04-13 03:48:00,65.1,60.8,29.95,WSW,248,2.3,2.4,86,0.00,CLR,,0.00,WeatherDisplay:10.37,2013-04-13 07:48:00,
2013-04-13 03:53:00,65.1,60.8,29.95,WSW,248,2.4,2.4,86,0.00,CLR,,0.00,WeatherDisplay:10.37,2013-04-13 07:53:00,
2013-04-13 03:59:00,65.1,60.8,29.95,WSW,248,2.3,2.4,86,0.00,CLR,,0.00,WeatherDisplay:10.37,2013-04-13 07:59:00,
2013-04-13 04:05:00,64.6,59.6,29.96,WSW,248,1.0,2.0,84,0.00,CLR,CLR,0.00,WeatherDisplay:10.37,2013-04-13 08:05:00,
2013-04-13 04:10:00,64.6,59.6,29.96,WSW,248,1.0,1.0,84,0.00,CLR,CLR,0.00,WeatherDisplay:10.37,2013-04-13 08:10:00,
2013-04-13 04:15:00,64.6,59.6,29.96,WSW,248,1.4,1.4,84,0.00,CLR,,0.00,WeatherDisplay:10.37,2013-04-13 08:15:00,
2013-04-13 04:21:00,64.6,59.6,29.96,WSW,248,1.4,1.4,84,0.00,CLR,,0.00,WeatherDisplay:10.37,2013-04-13 08:21:00,
2013-04-13 04:26:00,64.6,59.6,29.96,WSW,248,1.4,1.4,84,0.00,CLR,,0.00,WeatherDisplay:10.37,2013-04-13 08:26:00,
2013-04-13 04:31:00,63.7,58.1,29.97,SW,225,1.1,1.1,82,0.00,CLR,,0.00,WeatherDisplay:10.37,2013-04-13 08:31:00,
2013-04-13 04:37:00,63.7,58.1,29.97,SW,225,1.1,1.1,82,0.00,CLR,,0.00,WeatherDisplay:10.37,2013-04-13 08:37:00,
2013-04-13 04:42:00,63.7,58.1,29.97,SW,225,1.1,1.1,82,0.00,CLR,,0.00,WeatherDisplay:10.37,2013-04-13 08:42:00,
2013-04-13 04:47:00,63.7,58.1,29.97,SW,225,1.1,1.1,82,0.00,CLR,,0.00,WeatherDisplay:10.37,2013-04-13 08:47:00,
2013-04-13 04:52:00,63.7,58.1,29.97,SW,225,1.1,1.1,82,0.00,CLR,,0.00,WeatherDisplay:10.37,2013-04-13 08:52:00,
2013-04-13 04:57:00,63.7,58.1,29.97,SW,225,1.1,1.1,82,0.00,CLR,,0.00,WeatherDisplay:10.37,2013-04-13 08:57:00,
2013-04-13 05:02:00,62.4,56.2,29.99,WSW,248,2.3,2.3,80,0.00,CLR,,0.00,WeatherDisplay:10.37,2013-04-13 09:02:00,
2013-04-13 05:07:00,62.4,56.2,29.99,WSW,248,2.3,2.3,80,0.00,CLR,,0.00,WeatherDisplay:10.37,2013-04-13 09:07:00,
2013-04-13 05:12:00,62.4,56.2,29.99,WSW,248,2.3,2.3,80,0.00,CLR,,0.00,WeatherDisplay:10.37,2013-04-13 09:12:00,
2013-04-13 05:18:00,62.4,56.2,29.99,WSW,248,2.3,2.3,80,0.00,CLR,,0.00,WeatherDisplay:10.37,2013-04-13 09:18:00,
2013-04-13 05:23:00,62.4,56.2,29.99,WSW,248,2.3,2.3,80,0.00,CLR,,0.00,WeatherDisplay:10.37,2013-04-13 09:23:00,
2013-04-13 05:28:00,62.4,56.2,29.99,WSW,248,2.3,2.3,80,0.00,CLR,,0.00,WeatherDisplay:10.37,2013-04-13 09:28:00,
2013-04-13 05:33:00,61.3,54.8,30.00,NNW,338,2.4,2.4,79,0.00,CLR,,0.00,WeatherDisplay:10.37,2013-04-13 09:33:00,
2013-04-13 05:38:00,61.3,54.8,30.00,NNW,338,2.4,2.4,79,0.00,CLR,,0.00,WeatherDisplay:10.37,2013-04-13 09:38:00,
2013-04-13 05:43:00,61.3,54.8,30.00,NNW,338,2.4,2.4,79,0.00,CLR,,0.00,WeatherDisplay:10.37,2013-04-13 09:43:00,
2013-04-13 05:48:00,61.3,54.8,30.00,NNW,338,2.4,2.4,79,0.00,CLR,,0.00,WeatherDisplay:10.37,2013-04-13 09:48:00,
2013-04-13 05:53:00,61.3,54.8,30.00,NNW,338,2.4,2.4,79,0.00,CLR,,0.00,WeatherDisplay:10.37,2013-04-13 09:53:00,
2013-04-13 05:59:00,61.3,54.8,30.00,NNW,338,2.4,2.4,79,0.00,CLR,,0.00,WeatherDisplay:10.37,2013-04-13 09:59:00,
2013-04-13 06:04:00,60.4,53.5,30.00,NW,315,2.3,2.3,78,0.00,CLR,,0.00,WeatherDisplay:10.37,2013-04-13 10:04:00,
2013-04-13 06:09:00,60.4,53.5,30.00,NW,315,2.3,2.3,78,0.00,CLR,,0.00,WeatherDisplay:10.37,2013-04-13 10:09:00,
2013-04-13 06:14:00,60.4,53.5,30.00,NW,315,2.3,2.3,78,0.00,CLR,,0.00,WeatherDisplay:10.37,2013-04-13 10:14:00,
2013-04-13 06:19:00,60.4,53.5,30.00,NW,315,2.3,2.3,78,0.00,CLR,,0.00,WeatherDisplay:10.37,2013-04-13 10:19:00,
2013-04-13 06:24:00,60.4,53.5,30.00,NW,315,2.3,2.3,78,0.00,CLR,,0.00,WeatherDisplay:10.37,2013-04-13 10:24:00,
2013-04-13 06:30:00,60.4,53.5,30.00,NW,315,2.3,2.3,78,0.00,CLR,,0.00,WeatherDisplay:10.37,2013-04-13 10:30:00,
2013-04-13 06:35:00,59.4,52.5,30.01,WSW,248,3.5,3.5,78,0.00,CLR,,0.00,WeatherDisplay:10.37,2013-04-13 10:35:00,
2013-04-13 06:40:00,59.4,52.5,30.01,WSW,248,3.5,3.5,78,0.00,CLR,,0.00,WeatherDisplay:10.37,2013-04-13 10:40:00,
2013-04-13 06:46:00,59.4,52.5,30.01,WSW,248,3.5,3.5,78,0.00,CLR,,0.00,WeatherDisplay:10.37,2013-04-13 10:46:00,
2013-04-13 06:51:00,59.4,52.5,30.01,WSW,248,3.5,3.5,78,0.00,CLR,,0.00,WeatherDisplay:10.37,2013-04-13 10:51:00,
2013-04-13 06:56:00,59.4,52.5,30.01,WSW,248,3.5,3.5,78,0.00,CLR,,0.00,WeatherDisplay:10.37,2013-04-13 10:56:00,
2013-04-13 07:01:00,58.8,51.6,30.03,WSW,248,3.5,3.5,77,0.00,CLR,,0.00,WeatherDisplay:10.37,2013-04-13 11:01:00,
2013-04-13 07:06:00,58.8,51.6,30.03,WSW,248,2.3,2.3,77,0.00,CLR,,0.00,WeatherDisplay:10.37,2013-04-13 11:06:00,
2013-04-13 07:12:00,58.8,51.6,30.03,WSW,248,2.3,2.3,77,0.00,CLR,,0.00,WeatherDisplay:10.37,2013-04-13 11:12:00,
2013-04-13 07:17:00,58.8,51.6,30.03,WSW,248,2.3,2.3,77,0.00,CLR,,0.00,WeatherDisplay:10.37,2013-04-13 11:17:00,
2013-04-13 07:22:00,58.8,51.6,30.03,WSW,248,2.3,2.3,77,0.00,CLR,,0.00,WeatherDisplay:10.37,2013-04-13 11:22:00,
2013-04-13 07:27:00,58.8,51.6,30.03,WSW,248,2.3,2.3,77,0.00,CLR,,0.00,WeatherDisplay:10.37,2013-04-13 11:27:00,
2013-04-13 07:32:00,59.0,51.1,30.04,NW,315,4.6,4.6,75,0.00,CLR,,0.00,WeatherDisplay:10.37,2013-04-13 11:32:00,
2013-04-13 07:37:00,59.0,51.1,30.04,NW,315,4.6,4.6,75,0.00,CLR,,0.00,WeatherDisplay:10.37,2013-04-13 11:37:00,
2013-04-13 07:42:00,59.0,51.1,30.04,NW,315,4.6,4.6,75,0.00,CLR,,0.00,WeatherDisplay:10.37,2013-04-13 11:42:00,
2013-04-13 07:47:00,59.0,51.1,30.04,NW,315,4.6,4.6,75,0.00,CLR,,0.00,WeatherDisplay:10.37,2013-04-13 11:47:00,
2013-04-13 07:52:00,59.0,51.1,30.04,NW,315,4.6,4.6,75,0.00,CLR,,0.00,WeatherDisplay:10.37,2013-04-13 11:52:00,
2013-04-13 07:58:00,59.0,51.1,30.04,NW,315,4.6,4.6,75,0.00,CLR,,0.00,WeatherDisplay:10.37,2013-04-13 11:58:00,
2013-04-13 08:03:00,59.9,50.5,30.06,NNW,338,4.7,4.7,71,0.00,CLR,,0.00,WeatherDisplay:10.37,2013-04-13 12:03:00,
2013-04-13 08:08:00,59.9,50.5,30.06,NNW,338,4.7,4.7,71,0.00,CLR,,0.00,WeatherDisplay:10.37,2013-04-13 12:08:00,
2013-04-13 08:14:00,59.9,50.5,30.06,NNW,338,4.7,4.7,71,0.00,CLR,,0.00,WeatherDisplay:10.37,2013-04-13 12:14:00,
2013-04-13 08:19:00,59.9,50.5,30.06,NNW,338,4.6,4.7,71,0.00,CLR,,0.00,WeatherDisplay:10.37,2013-04-13 12:19:00,
2013-04-13 08:24:00,59.9,50.5,30.06,NNW,338,4.6,4.7,71,0.00,CLR,,0.00,WeatherDisplay:10.37,2013-04-13 12:24:00,
2013-04-13 08:29:00,59.9,50.5,30.06,NNW,338,4.6,4.7,71,0.00,CLR,,0.00,WeatherDisplay:10.37,2013-04-13 12:29:00,
2013-04-13 08:34:00,61.7,49.8,30.07,North,0,9.2,9.2,65,0.00,CLR,,0.00,WeatherDisplay:10.37,2013-04-13 12:34:00,
2013-04-13 08:39:00,61.7,49.8,30.07,North,0,9.2,9.2,65,0.00,CLR,,0.00,WeatherDisplay:10.37,2013-04-13 12:39:00,
2013-04-13 08:45:00,61.7,49.8,30.07,North,0,9.0,9.0,65,0.00,CLR,CLR,0.00,WeatherDisplay:10.37,2013-04-13 12:45:00,
2013-04-13 08:50:00,61.7,49.8,30.07,North,0,9.0,9.0,65,0.00,CLR,CLR,0.00,WeatherDisplay:10.37,2013-04-13 12:50:00,
2013-04-13 08:55:00,61.7,49.8,30.07,North,0,9.0,9.0,65,0.00,CLR,CLR,0.00,WeatherDisplay:10.37,2013-04-13 12:55:00,
2013-04-13 09:00:00,61.7,49.8,30.07,North,0,9.2,9.2,65,0.00,CLR,,0.00,WeatherDisplay:10.37,2013-04-13 13:00:00,
2013-04-13 09:05:00,63.1,48.1,30.07,NNW,338,8.1,8.1,58,0.00,CLR,,0.00,WeatherDisplay:10.37,2013-04-13 13:05:00,
2013-04-13 09:10:00,63.1,48.1,30.07,NNW,338,8.1,8.1,58,0.00,CLR,,0.00,WeatherDisplay:10.37,2013-04-13 13:10:00,
2013-04-13 09:16:00,63.1,48.1,30.07,NNW,338,8.1,8.1,58,0.00,CLR,,0.00,WeatherDisplay:10.37,2013-04-13 13:16:00,
2013-04-13 09:22:00,63.1,48.1,30.07,NNW,338,8.1,8.1,58,0.00,CLR,,0.00,WeatherDisplay:10.37,2013-04-13 13:22:00,
2013-04-13 09:27:00,63.1,48.1,30.07,NNW,338,8.1,8.1,58,0.00,CLR,,0.00,WeatherDisplay:10.37,2013-04-13 13:27:00,
2013-04-13 09:33:00,64.8,46.2,30.08,NNW,338,10.4,10.4,51,0.00,CLR,,0.00,WeatherDisplay:10.37,2013-04-13 13:33:00,
2013-04-13 09:38:00,64.8,46.2,30.08,NNW,338,10.4,10.4,51,0.00,CLR,,0.00,WeatherDisplay:10.37,2013-04-13 13:38:00,
2013-04-13 09:43:00,64.8,46.2,30.08,NNW,338,10.4,10.4,51,0.00,CLR,,0.00,WeatherDisplay:10.37,2013-04-13 13:43:00,
2013-04-13 09:48:00,64.8,46.2,30.08,NNW,338,10.4,10.4,51,0.00,CLR,,0.00,WeatherDisplay:10.37,2013-04-13 13:48:00,
2013-04-13 09:53:00,64.8,46.2,30.08,NNW,338,10.4,10.4,51,0.00,CLR,,0.00,WeatherDisplay:10.37,2013-04-13 13:53:00,
2013-04-13 09:58:00,64.8,46.2,30.08,NNW,338,10.4,10.4,51,0.00,CLR,,0.00,WeatherDisplay:10.37,2013-04-13 13:58:00,
2013-04-13 10:03:00,66.2,47.0,30.09,North,0,12.8,12.8,50,0.00,CLR,,0.00,WeatherDisplay:10.37,2013-04-13 14:03:00,
2013-04-13 10:08:00,66.2,47.0,30.09,North,0,12.8,12.8,50,0.00,CLR,,0.00,WeatherDisplay:10.37,2013-04-13 14:08:00,
2013-04-13 10:14:00,66.2,47.0,30.09,North,0,12.8,12.8,50,0.00,CLR,,0.00,WeatherDisplay:10.37,2013-04-13 14:14:00,
2013-04-13 10:19:00,66.2,47.0,30.09,North,0,12.8,12.8,50,0.00,CLR,,0.00,WeatherDisplay:10.37,2013-04-13 14:19:00,
2013-04-13 10:24:00,66.2,47.0,30.09,North,0,12.8,12.8,50,0.00,CLR,,0.00,WeatherDisplay:10.37,2013-04-13 14:24:00,
2013-04-13 10:29:00,66.2,47.0,30.09,North,0,12.8,12.8,50,0.00,CLR,,0.00,WeatherDisplay:10.37,2013-04-13 14:29:00,
2013-04-13 10:34:00,66.6,47.3,30.10,North,0,5.9,5.9,50,0.00,CLR,,0.00,WeatherDisplay:10.37,2013-04-13 14:34:00,
2013-04-13 10:39:00,66.6,47.3,30.10,North,0,5.9,5.9,50,0.00,CLR,,0.00,WeatherDisplay:10.37,2013-04-13 14:39:00,
2013-04-13 10:44:00,66.6,47.3,30.10,North,0,5.9,5.9,50,0.00,CLR,,0.00,WeatherDisplay:10.37,2013-04-13 14:44:00,
2013-04-13 10:49:00,66.6,47.3,30.10,North,0,5.9,5.9,50,0.00,CLR,,0.00,WeatherDisplay:10.37,2013-04-13 14:49:00,
2013-04-13 10:54:00,66.6,47.3,30.10,North,0,5.9,5.9,50,0.00,CLR,,0.00,WeatherDisplay:10.37,2013-04-13 14:54:00,
2013-04-13 10:59:00,66.6,47.3,30.10,North,0,5.9,5.9,50,0.00,CLR,,0.00,WeatherDisplay:10.37,2013-04-13 14:59:00,
2013-04-13 11:05:00,68.0,48.1,30.10,North,0,7.0,7.0,49,0.00,CLR,CLR,0.00,WeatherDisplay:10.37,2013-04-13 15:05:00,
2013-04-13 11:10:00,68.0,48.1,30.10,North,0,6.9,6.9,49,0.00,CLR,,0.00,WeatherDisplay:10.37,2013-04-13 15:10:00,
2013-04-13 11:15:00,68.0,48.1,30.10,North,0,6.9,6.9,49,0.00,CLR,,0.00,WeatherDisplay:10.37,2013-04-13 15:15:00,
2013-04-13 11:20:00,68.0,48.1,30.10,North,0,6.9,6.9,49,0.00,CLR,,0.00,WeatherDisplay:10.37,2013-04-13 15:20:00,
2013-04-13 11:25:00,68.0,48.1,30.10,North,0,6.9,6.9,49,0.00,CLR,,0.00,WeatherDisplay:10.37,2013-04-13 15:25:00,
2013-04-13 11:30:00,68.0,48.1,30.10,North,0,6.9,6.9,49,0.00,CLR,,0.00,WeatherDisplay:10.37,2013-04-13 15:30:00,
2013-04-13 11:35:00,70.2,51.7,30.11,ESE,112,2.4,2.4,52,0.00,CLR,,0.00,WeatherDisplay:10.37,2013-04-13 15:35:00,
2013-04-13 11:40:00,70.2,51.7,30.11,ESE,112,2.4,2.4,52,0.00,CLR,,0.00,WeatherDisplay:10.37,2013-04-13 15:40:00,
2013-04-13 11:45:00,70.2,51.7,30.11,ESE,112,2.4,2.4,52,0.00,CLR,,0.00,WeatherDisplay:10.37,2013-04-13 15:45:00,
2013-04-13 11:50:00,70.2,51.7,30.11,ESE,112,2.4,2.4,52,0.00,CLR,,0.00,WeatherDisplay:10.37,2013-04-13 15:50:00,
2013-04-13 11:55:00,70.2,51.7,30.11,ESE,112,2.4,2.4,52,0.00,CLR,,0.00,WeatherDisplay:10.37,2013-04-13 15:55:00,
2013-04-13 12:00:00,70.2,51.7,30.11,ESE,112,2.3,2.4,52,0.00,CLR,,0.00,WeatherDisplay:10.37,2013-04-13 16:00:00,
2013-04-13 12:05:00,70.9,52.9,30.11,ENE,68,2.3,2.3,53,0.00,CLR,,0.00,WeatherDisplay:10.37,2013-04-13 16:05:00,
2013-04-13 12:11:00,70.9,52.9,30.11,ENE,68,2.3,2.3,53,0.00,CLR,,0.00,WeatherDisplay:10.37,2013-04-13 16:11:00,
2013-04-13 12:18:00,70.9,52.9,30.11,ENE,68,2.3,2.3,53,0.00,CLR,,0.00,WeatherDisplay:10.37,2013-04-13 16:18:00,
2013-04-13 12:23:00,70.9,52.9,30.11,ENE,68,2.3,2.3,53,0.00,CLR,,0.00,WeatherDisplay:10.37,2013-04-13 16:23:00,
2013-04-13 12:28:00,70.9,52.9,30.11,ENE,68,2.3,2.3,53,0.00,CLR,,0.00,WeatherDisplay:10.37,2013-04-13 16:28:00,
2013-04-13 12:33:00,69.1,56.8,30.12,North,0,3.5,3.5,65,0.00,CLR,,0.00,WeatherDisplay:10.37,2013-04-13 16:33:00,
2013-04-13 12:38:00,69.1,56.8,30.12,North,0,3.5,3.5,65,0.00,CLR,,0.00,WeatherDisplay:10.37,2013-04-13 16:38:00,
2013-04-13 12:43:00,69.1,56.8,30.12,North,0,3.5,3.5,65,0.00,CLR,,0.00,WeatherDisplay:10.37,2013-04-13 16:43:00,
2013-04-13 12:49:00,69.1,56.8,30.12,North,0,3.5,3.5,65,0.00,CLR,,0.00,WeatherDisplay:10.37,2013-04-13 16:49:00,
2013-04-13 12:54:00,69.1,56.8,30.12,North,0,3.5,3.5,65,0.00,CLR,,0.00,WeatherDisplay:10.37,2013-04-13 16:54:00,
2013-04-13 12:59:00,69.1,56.8,30.12,North,0,3.5,3.5,65,0.00,CLR,,0.00,WeatherDisplay:10.37,2013-04-13 16:59:00,
2013-04-13 13:04:00,69.4,55.4,30.12,ESE,112,10.4,10.4,61,0.00,CLR,,0.00,WeatherDisplay:10.37,2013-04-13 17:04:00,
2013-04-13 13:10:00,69.4,55.4,30.12,ESE,112,10.0,10.0,61,0.00,CLR,CLR,0.00,WeatherDisplay:10.37,2013-04-13 17:10:00,
2013-04-13 13:16:00,69.4,55.4,30.12,ESE,112,10.4,10.4,61,0.00,CLR,,0.00,WeatherDisplay:10.37,2013-04-13 17:16:00,
2013-04-13 13:21:00,69.4,55.4,30.12,ESE,112,10.4,10.4,61,0.00,CLR,,0.00,WeatherDisplay:10.37,2013-04-13 17:21:00,
2013-04-13 13:26:00,69.4,55.4,30.12,ESE,112,10.4,10.4,61,0.00,CLR,,0.00,WeatherDisplay:10.37,2013-04-13 17:26:00,
2013-04-13 13:32:00,70.7,56.1,30.12,South,180,3.5,3.5,60,0.00,CLR,,0.00,WeatherDisplay:10.37,2013-04-13 17:32:00,
2013-04-13 13:37:00,70.7,56.1,30.12,South,180,3.5,3.5,60,0.00,CLR,,0.00,WeatherDisplay:10.37,2013-04-13 17:37:00,
2013-04-13 13:42:00,70.7,56.1,30.12,South,180,3.5,3.5,60,0.00,CLR,,0.00,WeatherDisplay:10.37,2013-04-13 17:42:00,
2013-04-13 13:48:00,70.7,56.1,30.12,South,180,3.5,3.5,60,0.00,CLR,,0.00,WeatherDisplay:10.37,2013-04-13 17:48:00,
2013-04-13 13:53:00,70.7,56.1,30.12,South,180,3.5,3.5,60,0.00,CLR,,0.00,WeatherDisplay:10.37,2013-04-13 17:53:00,
2013-04-13 13:59:00,70.7,56.1,30.12,South,180,3.5,3.5,60,0.00,CLR,,0.00,WeatherDisplay:10.37,2013-04-13 17:59:00,
2013-04-13 14:04:00,69.3,54.8,30.12,ENE,68,6.2,6.2,60,0.00,CLR,,0.00,WeatherDisplay:10.37,2013-04-13 18:04:00,
2013-04-13 14:09:00,69.3,54.8,30.12,ENE,68,6.2,6.2,60,0.00,CLR,,0.00,WeatherDisplay:10.37,2013-04-13 18:09:00,
2013-04-13 14:14:00,69.3,54.8,30.12,ENE,68,6.2,6.2,60,0.00,CLR,,0.00,WeatherDisplay:10.37,2013-04-13 18:14:00,
2013-04-13 14:19:00,69.3,54.8,30.12,ENE,68,6.2,6.2,60,0.00,CLR,,0.00,WeatherDisplay:10.37,2013-04-13 18:19:00,
2013-04-13 14:25:00,69.3,54.8,30.12,ENE,68,6.0,6.0,60,0.00,CLR,CLR,0.00,WeatherDisplay:10.37,2013-04-13 18:25:00,
2013-04-13 14:27:00,69.3,54.8,30.12,ENE,68,6.2,6.2,60,0.00,CLR,,0.00,WeatherDisplay:10.37,2013-04-13 18:27:00,
2013-04-13 14:28:00,69.3,54.8,30.12,ENE,68,6.2,6.2,60,0.00,CLR,,0.00,WeatherDisplay:10.37,2013-04-13 18:28:00,
2013-04-13 14:33:00,70.2,55.2,30.11,SSW,202,3.5,3.5,59,0.01,RA,,0.01,WeatherDisplay:10.37,2013-04-13 18:33:00,
2013-04-13 14:38:00,70.2,55.2,30.11,SSW,202,3.5,3.5,59,0.01,RA,,0.01,WeatherDisplay:10.37,2013-04-13 18:38:00,
2013-04-13 14:43:00,70.2,55.2,30.11,SSW,202,3.5,3.5,59,0.01,CLR,,0.01,WeatherDisplay:10.37,2013-04-13 18:43:00,
2013-04-13 14:48:00,70.2,55.2,30.11,SSW,202,3.5,3.5,59,0.01,CLR,,0.01,WeatherDisplay:10.37,2013-04-13 18:48:00,
2013-04-13 14:53:00,70.2,55.2,30.11,SSW,202,3.5,3.5,59,0.01,CLR,,0.01,WeatherDisplay:10.37,2013-04-13 18:53:00,
2013-04-13 14:58:00,70.2,55.2,30.11,SSW,202,3.5,3.5,59,0.01,CLR,,0.01,WeatherDisplay:10.37,2013-04-13 18:58:00,
2013-04-13 15:03:00,70.2,54.7,30.11,SE,135,3.6,3.6,58,0.01,CLR,,0.01,WeatherDisplay:10.37,2013-04-13 19:03:00,
2013-04-13 15:08:00,70.2,54.7,30.11,SE,135,3.6,3.6,58,0.01,CLR,,0.01,WeatherDisplay:10.37,2013-04-13 19:08:00,
2013-04-13 15:13:00,70.2,54.7,30.11,SE,135,3.6,3.6,58,0.01,CLR,,0.01,WeatherDisplay:10.37,2013-04-13 19:13:00,
2013-04-13 15:18:00,70.2,54.7,30.11,SE,135,3.6,3.6,58,0.01,CLR,,0.01,WeatherDisplay:10.37,2013-04-13 19:18:00,
2013-04-13 15:23:00,70.2,54.7,30.11,SE,135,3.6,3.6,58,0.01,CLR,,0.01,WeatherDisplay:10.37,2013-04-13 19:23:00,
2013-04-13 15:28:00,70.2,54.7,30.11,SE,135,3.6,3.6,58,0.01,CLR,,0.01,WeatherDisplay:10.37,2013-04-13 19:28:00,
2013-04-13 15:33:00,70.7,55.2,30.10,NNW,338,2.3,2.3,58,0.00,CLR,,0.01,WeatherDisplay:10.37,2013-04-13 19:33:00,
2013-04-13 15:38:00,70.7,55.2,30.10,NNW,338,2.3,2.3,58,0.00,CLR,,0.01,WeatherDisplay:10.37,2013-04-13 19:38:00,
2013-04-13 15:43:00,70.7,55.2,30.10,NNW,338,2.3,2.3,58,0.00,CLR,,0.01,WeatherDisplay:10.37,2013-04-13 19:43:00,
2013-04-13 15:48:00,70.7,55.2,30.10,NNW,338,2.3,2.3,58,0.00,CLR,,0.01,WeatherDisplay:10.37,2013-04-13 19:48:00,
2013-04-13 15:53:00,70.7,55.2,30.10,NNW,338,2.3,2.3,58,0.00,CLR,,0.01,WeatherDisplay:10.37,2013-04-13 19:53:00,
2013-04-13 15:58:00,70.7,55.2,30.10,NNW,338,2.3,2.3,58,0.00,CLR,,0.01,WeatherDisplay:10.37,2013-04-13 19:58:00,
2013-04-13 16:03:00,70.0,54.0,30.10,SSE,158,4.6,4.6,57,0.00,CLR,,0.01,WeatherDisplay:10.37,2013-04-13 20:03:00,
2013-04-13 16:08:00,70.0,54.0,30.10,SSE,158,4.6,4.6,57,0.00,CLR,,0.01,WeatherDisplay:10.37,2013-04-13 20:08:00,
2013-04-13 16:13:00,70.0,54.0,30.10,SSE,158,4.6,4.6,57,0.00,CLR,,0.01,WeatherDisplay:10.37,2013-04-13 20:13:00,
2013-04-13 16:18:00,70.0,54.0,30.10,SSE,158,4.6,4.6,57,0.00,CLR,,0.01,WeatherDisplay:10.37,2013-04-13 20:18:00,
2013-04-13 16:23:00,70.0,54.0,30.10,SSE,158,4.6,4.6,57,0.00,CLR,,0.01,WeatherDisplay:10.37,2013-04-13 20:23:00,
2013-04-13 16:28:00,70.0,54.0,30.10,SSE,158,4.6,4.6,57,0.00,CLR,,0.01,WeatherDisplay:10.37,2013-04-13 20:28:00,
2013-04-13 16:33:00,70.2,53.7,30.09,South,180,2.4,2.4,56,0.00,CLR,,0.01,WeatherDisplay:10.37,2013-04-13 20:33:00,
2013-04-13 16:38:00,70.2,53.7,30.09,South,180,2.4,2.4,56,0.00,CLR,,0.01,WeatherDisplay:10.37,2013-04-13 20:38:00,
2013-04-13 16:43:00,70.2,53.7,30.09,South,180,2.4,2.4,56,0.00,CLR,,0.01,WeatherDisplay:10.37,2013-04-13 20:43:00,
2013-04-13 16:48:00,70.2,53.7,30.09,South,180,2.4,2.4,56,0.00,CLR,,0.01,WeatherDisplay:10.37,2013-04-13 20:48:00,
2013-04-13 16:53:00,70.2,53.7,30.09,South,180,2.4,2.4,56,0.00,CLR,,0.01,WeatherDisplay:10.37,2013-04-13 20:53:00,
2013-04-13 16:58:00,70.2,53.7,30.09,South,180,2.4,2.4,56,0.00,CLR,,0.01,WeatherDisplay:10.37,2013-04-13 20:58:00,
2013-04-13 17:03:00,69.4,53.1,30.09,SE,135,2.3,2.3,56,0.00,CLR,,0.01,WeatherDisplay:10.37,2013-04-13 21:03:00,
2013-04-13 17:08:00,69.4,53.1,30.09,SE,135,2.3,2.3,56,0.00,CLR,,0.01,WeatherDisplay:10.37,2013-04-13 21:08:00,
2013-04-13 17:13:00,69.4,53.1,30.09,SE,135,2.3,2.3,56,0.00,CLR,,0.01,WeatherDisplay:10.37,2013-04-13 21:13:00,
2013-04-13 17:18:00,69.4,53.1,30.09,SE,135,2.3,2.3,56,0.00,CLR,,0.01,WeatherDisplay:10.37,2013-04-13 21:18:00,
2013-04-13 17:23:00,69.4,53.1,30.09,SE,135,2.3,2.3,56,0.00,CLR,,0.01,WeatherDisplay:10.37,2013-04-13 21:23:00,
2013-04-13 17:28:00,69.4,53.1,30.09,SE,135,2.3,2.3,56,0.00,CLR,,0.01,WeatherDisplay:10.37,2013-04-13 21:28:00,
2013-04-13 17:33:00,67.8,52.5,30.10,ENE,68,1.6,1.6,58,0.00,CLR,,0.01,WeatherDisplay:10.37,2013-04-13 21:33:00,
2013-04-13 17:38:00,67.8,52.5,30.10,ENE,68,1.6,1.6,58,0.00,CLR,,0.01,WeatherDisplay:10.37,2013-04-13 21:38:00,
2013-04-13 17:44:00,67.8,52.5,30.10,ENE,68,1.1,1.6,58,0.00,CLR,,0.01,WeatherDisplay:10.37,2013-04-13 21:44:00,
2013-04-13 17:49:00,67.8,52.5,30.10,ENE,68,1.1,1.6,58,0.00,CLR,,0.01,WeatherDisplay:10.37,2013-04-13 21:49:00,
2013-04-13 17:54:00,67.8,52.5,30.10,ENE,68,1.6,1.6,58,0.00,CLR,,0.01,WeatherDisplay:10.37,2013-04-13 21:54:00,
2013-04-13 17:59:00,67.8,52.5,30.10,ENE,68,1.6,1.6,58,0.00,CLR,,0.01,WeatherDisplay:10.37,2013-04-13 21:59:00,
2013-04-13 18:04:00,67.6,52.8,30.10,South,180,3.5,3.5,59,0.00,CLR,,0.01,WeatherDisplay:10.37,2013-04-13 22:04:00,
2013-04-13 18:09:00,67.6,52.8,30.10,South,180,3.5,3.5,59,0.00,CLR,,0.01,WeatherDisplay:10.37,2013-04-13 22:09:00,
2013-04-13 18:14:00,67.6,52.8,30.10,South,180,3.5,3.5,59,0.00,CLR,,0.01,WeatherDisplay:10.37,2013-04-13 22:14:00,
2013-04-13 18:19:00,67.6,52.8,30.10,South,180,3.5,3.5,59,0.00,CLR,,0.01,WeatherDisplay:10.37,2013-04-13 22:19:00,
2013-04-13 18:24:00,67.6,52.8,30.10,South,180,3.5,3.5,59,0.00,CLR,,0.01,WeatherDisplay:10.37,2013-04-13 22:24:00,
2013-04-13 18:29:00,67.6,52.8,30.10,South,180,3.5,3.5,59,0.00,CLR,,0.01,WeatherDisplay:10.37,2013-04-13 22:29:00,
2013-04-13 18:34:00,66.4,52.5,30.11,WSW,248,2.3,2.3,61,0.00,CLR,,0.01,WeatherDisplay:10.37,2013-04-13 22:34:00,
2013-04-13 18:39:00,66.4,52.5,30.11,WSW,248,2.3,2.3,61,0.00,CLR,,0.01,WeatherDisplay:10.37,2013-04-13 22:39:00,
2013-04-13 18:44:00,66.4,52.5,30.11,WSW,248,2.3,2.3,61,0.00,CLR,,0.01,WeatherDisplay:10.37,2013-04-13 22:44:00,
2013-04-13 18:49:00,66.4,52.5,30.11,WSW,248,2.3,2.3,61,0.00,CLR,,0.01,WeatherDisplay:10.37,2013-04-13 22:49:00,
2013-04-13 18:54:00,66.4,52.5,30.11,WSW,248,2.3,2.3,61,0.00,CLR,,0.01,WeatherDisplay:10.37,2013-04-13 22:54:00,
2013-04-13 18:59:00,66.4,52.5,30.11,WSW,248,2.3,2.3,61,0.00,CLR,,0.01,WeatherDisplay:10.37,2013-04-13 22:59:00,
2013-04-13 19:04:00,64.6,52.1,30.12,West,270,1.6,1.6,64,0.00,CLR,,0.01,WeatherDisplay:10.37,2013-04-13 23:04:00,
2013-04-13 19:09:00,64.6,52.1,30.12,West,270,1.6,1.6,64,0.00,CLR,,0.01,WeatherDisplay:10.37,2013-04-13 23:09:00,
2013-04-13 19:14:00,64.6,52.1,30.12,West,270,1.6,1.6,64,0.00,CLR,,0.01,WeatherDisplay:10.37,2013-04-13 23:14:00,
2013-04-13 19:19:00,64.6,52.1,30.12,West,270,1.6,1.6,64,0.00,CLR,,0.01,WeatherDisplay:10.37,2013-04-13 23:19:00,
2013-04-13 19:24:00,64.6,52.1,30.12,West,270,1.6,1.6,64,0.00,CLR,,0.01,WeatherDisplay:10.37,2013-04-13 23:24:00,
2013-04-13 19:29:00,64.6,52.1,30.12,West,270,1.6,1.6,64,0.00,CLR,,0.01,WeatherDisplay:10.37,2013-04-13 23:29:00,
2013-04-13 19:34:00,62.6,51.9,30.12,SW,225,2.3,2.3,68,0.00,CLR,,0.01,WeatherDisplay:10.37,2013-04-13 23:34:00,
2013-04-13 19:39:00,62.6,51.9,30.12,SW,225,2.3,2.3,68,0.00,CLR,,0.01,WeatherDisplay:10.37,2013-04-13 23:39:00,
2013-04-13 19:44:00,62.6,51.9,30.12,SW,225,2.3,2.3,68,0.00,CLR,,0.01,WeatherDisplay:10.37,2013-04-13 23:44:00,
2013-04-13 19:49:00,62.6,51.9,30.12,SW,225,2.3,2.3,68,0.00,CLR,,0.01,WeatherDisplay:10.37,2013-04-13 23:49:00,
2013-04-13 19:54:00,62.6,51.9,30.12,SW,225,2.3,2.3,68,0.00,CLR,,0.01,WeatherDisplay:10.37,2013-04-13 23:54:00,
2013-04-13 19:59:00,62.6,51.9,30.12,SW,225,2.3,2.3,68,0.00,CLR,,0.01,WeatherDisplay:10.37,2013-04-13 23:59:00,
2013-04-13 20:04:00,61.2,50.9,30.14,SSW,202,0.5,0.5,69,0.00,CLR,,0.01,WeatherDisplay:10.37,2013-04-14 00:04:00,
2013-04-13 20:09:00,61.2,50.9,30.14,SSW,202,0.5,0.5,69,0.00,CLR,,0.01,WeatherDisplay:10.37,2013-04-14 00:09:00,
2013-04-13 20:14:00,61.2,50.9,30.14,SSW,202,0.0,0.5,69,0.00,CLR,,0.01,WeatherDisplay:10.37,2013-04-14 00:14:00,
2013-04-13 20:19:00,61.2,50.9,30.14,SSW,202,0.5,0.5,69,0.00,CLR,,0.01,WeatherDisplay:10.37,2013-04-14 00:19:00,
2013-04-13 20:24:00,61.2,50.9,30.14,SSW,202,0.5,0.5,69,0.00,CLR,,0.01,WeatherDisplay:10.37,2013-04-14 00:24:00,
2013-04-13 20:29:00,61.2,50.9,30.14,SSW,202,0.5,0.5,69,0.00,CLR,,0.01,WeatherDisplay:10.37,2013-04-14 00:29:00,
2013-04-13 20:34:00,59.5,50.1,30.14,SE,135,0.0,0.0,71,0.00,CLR,,0.01,WeatherDisplay:10.37,2013-04-14 00:34:00,
2013-04-13 20:39:00,59.5,50.1,30.14,SE,135,0.0,0.0,71,0.00,CLR,,0.01,WeatherDisplay:10.37,2013-04-14 00:39:00,
2013-04-13 20:44:00,59.5,50.1,30.14,SE,135,0.0,0.0,71,0.00,CLR,,0.01,WeatherDisplay:10.37,2013-04-14 00:44:00,
2013-04-13 20:49:00,59.5,50.1,30.14,SE,135,0.0,0.0,71,0.00,CLR,,0.01,WeatherDisplay:10.37,2013-04-14 00:49:00,
2013-04-13 20:54:00,59.5,50.1,30.14,SE,135,0.0,0.0,71,0.00,CLR,,0.01,WeatherDisplay:10.37,2013-04-14 00:54:00,
2013-04-13 20:59:00,59.5,50.1,30.14,SE,135,0.0,0.0,71,0.00,CLR,,0.01,WeatherDisplay:10.37,2013-04-14 00:59:00,
2013-04-13 21:04:00,58.5,49.8,30.16,SSW,202,0.0,0.0,73,0.00,CLR,,0.01,WeatherDisplay:10.37,2013-04-14 01:04:00,
2013-04-13 21:09:00,58.5,49.8,30.16,SSW,202,0.0,0.0,73,0.00,CLR,,0.01,WeatherDisplay:10.37,2013-04-14 01:09:00,
2013-04-13 21:14:00,58.5,49.8,30.16,SSW,202,0.0,0.0,73,0.00,CLR,,0.01,WeatherDisplay:10.37,2013-04-14 01:14:00,
2013-04-13 21:19:00,58.5,49.8,30.16,SSW,202,0.0,0.0,73,0.00,CLR,,0.01,WeatherDisplay:10.37,2013-04-14 01:19:00,
2013-04-13 21:24:00,58.5,49.8,30.16,SSW,202,0.0,0.0,73,0.00,CLR,,0.01,WeatherDisplay:10.37,2013-04-14 01:24:00,
2013-04-13 21:29:00,58.5,49.8,30.16,SSW,202,0.0,0.0,73,0.00,CLR,,0.01,WeatherDisplay:10.37,2013-04-14 01:29:00,
2013-04-13 21:34:00,57.6,49.3,30.17,WSW,248,0.0,0.0,74,0.00,CLR,,0.01,WeatherDisplay:10.37,2013-04-14 01:34:00,
2013-04-13 21:39:00,57.6,49.3,30.17,WSW,248,0.0,0.0,74,0.00,CLR,,0.01,WeatherDisplay:10.37,2013-04-14 01:39:00,
2013-04-13 21:44:00,57.6,49.3,30.17,WSW,248,0.0,0.0,74,0.00,CLR,,0.01,WeatherDisplay:10.37,2013-04-14 01:44:00,
2013-04-13 21:49:00,57.6,49.3,30.17,WSW,248,0.0,0.0,74,0.00,CLR,,0.01,WeatherDisplay:10.37,2013-04-14 01:49:00,
2013-04-13 21:54:00,57.6,49.3,30.17,WSW,248,0.0,0.0,74,0.00,CLR,,0.01,WeatherDisplay:10.37,2013-04-14 01:54:00,
2013-04-13 21:59:00,57.6,49.3,30.17,WSW,248,0.0,0.0,74,0.00,CLR,,0.01,WeatherDisplay:10.37,2013-04-14 01:59:00,
2013-04-13 22:04:00,56.5,48.6,30.17,WSW,248,0.0,0.0,75,0.00,CLR,,0.01,WeatherDisplay:10.37,2013-04-14 02:04:00,
2013-04-13 22:09:00,56.5,48.6,30.17,WSW,248,0.0,0.0,75,0.00,CLR,,0.01,WeatherDisplay:10.37,2013-04-14 02:09:00,
2013-04-13 22:15:00,56.5,48.6,30.17,WSW,248,0.0,0.0,75,0.00,CLR,,0.01,WeatherDisplay:10.37,2013-04-14 02:15:00,
2013-04-13 22:20:00,56.5,48.6,30.17,WSW,248,0.0,0.0,75,0.00,CLR,,0.01,WeatherDisplay:10.37,2013-04-14 02:20:00,
2013-04-13 22:25:00,56.5,48.6,30.17,WSW,248,0.0,0.0,75,0.00,CLR,,0.01,WeatherDisplay:10.37,2013-04-14 02:25:00,
2013-04-13 22:30:00,56.5,48.6,30.17,WSW,248,0.0,0.0,75,0.00,CLR,,0.01,WeatherDisplay:10.37,2013-04-14 02:30:00,
2013-04-13 22:35:00,55.6,48.1,30.17,WSW,248,0.0,0.0,76,0.00,CLR,CLR,0.01,WeatherDisplay:10.37,2013-04-14 02:35:00,
2013-04-13 22:40:00,55.6,48.1,30.17,WSW,248,0.0,0.0,76,0.00,CLR,,0.01,WeatherDisplay:10.37,2013-04-14 02:40:00,
2013-04-13 22:45:00,55.6,48.1,30.17,WSW,248,0.0,0.0,76,0.00,CLR,,0.01,WeatherDisplay:10.37,2013-04-14 02:45:00,
2013-04-13 22:50:00,55.6,48.1,30.17,WSW,248,0.0,0.0,76,0.00,CLR,CLR,0.01,WeatherDisplay:10.37,2013-04-14 02:50:00,
2013-04-13 22:55:00,55.6,48.1,30.17,WSW,248,0.0,0.0,76,0.00,CLR,CLR,0.01,WeatherDisplay:10.37,2013-04-14 02:55:00,
2013-04-13 23:00:00,55.6,48.1,30.17,WSW,248,0.0,0.0,76,0.00,CLR,CLR,0.01,WeatherDisplay:10.37,2013-04-14 03:00:00,
2013-04-13 23:05:00,54.7,48.0,30.18,WSW,248,0.0,0.0,78,0.00,CLR,CLR,0.01,WeatherDisplay:10.37,2013-04-14 03:05:00,
2013-04-13 23:10:00,54.7,48.0,30.18,WSW,248,0.0,0.0,78,0.00,CLR,,0.01,WeatherDisplay:10.37,2013-04-14 03:10:00,
2013-04-13 23:15:00,54.7,48.0,30.18,WSW,248,0.0,0.0,78,0.00,CLR,,0.01,WeatherDisplay:10.37,2013-04-14 03:15:00,
2013-04-13 23:20:00,54.7,48.0,30.18,WSW,248,0.0,0.0,78,0.00,CLR,,0.01,WeatherDisplay:10.37,2013-04-14 03:20:00,
2013-04-13 23:25:00,54.7,48.0,30.18,WSW,248,0.0,0.0,78,0.00,CLR,,0.01,WeatherDisplay:10.37,2013-04-14 03:25:00,
2013-04-13 23:30:00,54.7,48.0,30.18,WSW,248,0.0,0.0,78,0.00,CLR,,0.01,WeatherDisplay:10.37,2013-04-14 03:30:00,
2013-04-13 23:35:00,54.0,47.3,30.18,WSW,248,0.0,0.0,78,0.00,CLR,,0.01,WeatherDisplay:10.37,2013-04-14 03:35:00,
2013-04-13 23:40:00,54.0,47.3,30.18,WSW,248,0.0,0.0,78,0.00,CLR,,0.01,WeatherDisplay:10.37,2013-04-14 03:40:00,
2013-04-13 23:45:00,54.0,47.3,30.18,WSW,248,0.0,0.0,78,0.00,CLR,,0.01,WeatherDisplay:10.37,2013-04-14 03:45:00,
2013-04-13 23:50:00,54.0,47.3,30.18,WSW,248,0.0,0.0,78,0.00,CLR,,0.01,WeatherDisplay:10.37,2013-04-14 03:50:00,
2013-04-13 23:55:00,54.0,47.3,30.18,WSW,248,0.0,0.0,78,0.00,CLR,,0.01,WeatherDisplay:10.37,2013-04-14 03:55:00,